カタログに戻る

FENGYUN 1C DEB

運用中PO
NORAD 32146·DEBRIS·🇨🇳 China

打ち上げ May 10, 1999 から Taiyuan Satellite Launch Center

Loading…

次のパス (今後24時間)

TLE

最新Source: Space-Track

元期: Sep 12, 2026, 23:46 UTC

1 32146U 99025CSQ 26255.99052886  .00006729  00000-0  11688-2 0  9998
2 32146  98.9041  89.6041 0055915 314.2829  45.3793 14.67519212990918

AllMySatでFENGYUN 1C DEBをリアルタイム追跡

Download on the App Store